STARLINK-31662, 59584

Orbit data source: Space-Track

STARLINK-31662, 59584 is a payload satellite owned by SpaceX/Seattle (US) in LEO that was launched on Tue, 23 Apr 2024 UTC via an FALCON 9 launch vehicle from the Air Force Eastern Test Range (AFETR). Payload-class satellites include a variety of spacecraft equipped with specific instruments for various scientific and technological missions. These include communications satellites like Starlink; space stations such as the ISS; scientific satellites like the Hubble; Earth observation satellites from companies like Planet Labs, Umbra, and HawkEye 360; GPS; miniature CubeSats for education and research; and military/defense satellites.

Loading next visibility...
Identifier
59584, 2024-076W
Orbit
LEO
Country
Flag of USUS
Related business
Manufacturer
SpaceX/Seattle
Mission
Operational Commercial Communications
Bus & Motor
STARLINK V2M, Unknown motor
Mass
730 kg wet, ~700 kg dry
Launch date (UTC)
2024-04-23 (2 years ago)
Launch vehicle
FALCON 9
Launch site
Air Force Eastern Test Range (AFETR)
Object type
Payload
Rocket body
Debris
Shape & HBR
Box + 2 Pan, 17.7 m
Radar Cross Section
33.884 m², Large (>1 m²)

Expand to show TLE details & history
Last TLE update: 14 hours ago

TLE from 14 hours ago
0 STARLINK-31662
1 59584U 24076W   26035.48836087  .00001991  00000-0  81872-4 0  9990
2 59584  43.0020 196.6140 0001133 269.1212  90.9510 15.27571787101422
Epoch: 2026-02-04T11:43Z
TLE epoch observation values (Epoch: 2026-02-04T11:43:14.379Z)
Latitude
Longitude
-113.85013°
Altitude
482.862 km
Speed
7.626 km/s
True Right ascension
13h 06m 27s
True Declination
0° 00' 00"
Sunlit
Object was in full shadow at epoch
Visualization orbit readout
Latitude
Unknown
Longitude
Unknown
Altitude
Unknown
Speed
Unknown
Apparent Right ascension
Unknown
Apparent Declination
Unknown
Sunlit
N/A
Visualization observer readout
Local Sidereal Time
03:54:46
Azimuth
Unknown
Elevation
Unknown
Doppler factor
Unknown
Orbital elements
Apogee altitude
485.796 km
Perigee altitude
484.241 km
Semi-major axis
6,863.156 km
Eccentricity
0.00011
Inclination
43.002°
RAAN
196.614°
Arg. of periapsis
269.1212°
True anomaly
90.96398°
Mean anomaly
90.951°
Eccentric anomaly
90.95749°
Mean motion
3.81731 °/min
Orbital period
94.31 mins
BSTAR
0.000081872
Loading maneuver chart data...
Computing Atmospheric mass density...
Loading historical data...
Loading historical data...
Loading historical data...
Loading historical data...
Loading historical data...
Loading historical data...
Loading historical data...

Documentation

Showing up to 5 results
|